#timestamp,LO_Frequency,Hit 
1504335615.8,286046995.6,N
1504335635.6,286046997.7,N
1504335655.4,286046998.1,N
1504335675.3,286047001.0,N
1504335695.1,286047001.1,N
1504335696.0,286047001.1,N
1504335715.8,286046997.4,N
1504335735.7,286046997.1,N
1504335755.5,286047000.0,N
1504335775.3,286046998.1,N
1504335795.1,286046997.8,N
1504335815.9,286046995.8,N
1504335835.7,286046993.3,P
1504335855.6,286046997.9,N
1504335875.4,286046997.4,N
1504335895.2,286046997.1,N
1504335915.0,286047002.2,N
1504335915.9,286047002.2,N
1504335935.8,286046999.3,N
1504335955.6,286046999.5,N
1504335975.4,286046995.3,N
1504335995.3,286046997.8,N
1504336015.1,286046998.0,N
1504336035.8,286046997.4,N
1504336055.7,286046998.8,N
1504336075.5,286046996.6,N
1504336095.3,286047001.2,N
1504336115.2,286046999.9,N
1504336135.9,286047004.0,N
1504336155.7,286047001.5,N
1504336175.6,286046998.6,N
1504336195.4,286047000.7,N
1504336215.2,286047002.7,N
1504336235.0,286046999.2,N
1504336236.0,286046999.2,N
1504336255.8,286046996.9,N
1504336275.6,286047000.9,N
1504336295.4,286046998.9,N
1504336315.3,286047002.4,N
1504336335.1,286046999.9,N
1504336355.8,286047000.7,N
1504336375.7,286046998.1,N
1504336395.5,286046999.0,N
1504336415.3,286046999.3,N
1504336435.2,286046998.2,N
1504336455.9,286047001.3,N
1504336475.7,286047001.7,N
1504336495.6,286047002.3,N
1504336515.4,286047002.6,N
1504336535.2,286046998.8,N
1504336555.1,286046998.7,N
1504336556.0,286046998.7,N
1504336575.8,286047000.6,N
1504336595.6,286046998.5,N
1504336615.4,286046996.7,N
1504336635.3,286047000.7,N
1504336655.1,286046999.9,N
1504336675.8,286046998.1,N
1504336695.7,286047000.6,N
1504336715.5,286047003.0,N
1504336735.3,286047003.8,N
1504336755.2,286047002.5,N
1504336775.9,286047003.9,N
1504336795.7,286047007.2,P
1504336815.6,286047007.3,N
1504336835.4,286047006.3,N
1504336855.2,286047008.6,N
1504336875.1,286047007.4,N
1504336876.0,286047007.4,N
1504336895.8,286047005.3,N
1504336915.6,286047007.3,N
1504336935.5,286047005.3,N
1504336955.3,286047007.6,P
1504336975.1,286046996.8,P
1504336995.9,286046997.9,N
1504337015.7,286046999.1,N
1504337035.5,286046999.2,N
1504337055.4,286046996.7,N
1504337075.2,286046993.3,N
1504337095.0,286046994.5,N
1504337095.9,286046994.5,N
1504337115.8,286046991.8,N
1504337135.6,286046994.8,N
1504337155.4,286046990.2,N
1504337175.3,286046992.1,N
1504337195.1,286046991.3,N
1504337196.0,286046991.3,N
1504337215.8,286046991.0,N
1504337235.6,286046990.2,N
1504337255.5,286046994.4,N
1504337275.3,286046995.9,N
1504337295.1,286046988.6,N
1504337315.9,286046990.6,N
1504337335.7,286046988.6,N
1504337355.5,286046991.5,N
1504337375.4,286046989.1,N
1504337395.2,286046985.3,P
1504337415.0,286046994.4,N
1504337415.9,286046994.4,N
1504337435.8,286046993.9,N
1504337455.6,286046991.9,N
1504337475.4,286046995.5,N
1504337495.3,286046993.4,N
1504337515.1,286046994.0,N
1504337516.0,286046994.0,N
1504337535.8,286046994.8,N
1504337555.7,286046992.0,P
1504337575.5,286047002.2,P
1504337595.3,286047002.7,N
1504337615.2,286047001.1,N
1504337635.9,286047002.6,N
1504337655.7,286047000.2,N
1504337675.6,286047000.4,N
1504337695.4,286046998.8,N
1504337715.2,286047000.1,N
1504337735.1,286047002.2,N
1504337736.0,286047002.2,N
1504337755.8,286047002.2,N
1504337775.6,286047000.4,N
1504337795.5,286047000.4,N
1504337815.3,286046999.5,N
1504337835.1,286047002.2,N
1504337855.9,286047003.6,N
1504337875.7,286047004.3,N
1504337895.5,286047003.5,N
1504337915.3,286047004.7,N
1504337935.2,286047006.3,N
1504337955.0,286047005.4,N
1504337955.9,286047005.4,N
1504337975.7,286047005.0,N
1504337995.6,286047007.4,N
1504338015.4,286047002.1,N
1504338035.2,286047001.9,N
1504338055.1,286047002.6,N
1504338056.0,286047002.6,N
1504338075.8,286046999.8,N
1504338095.6,286047000.5,N
1504338115.5,286047002.6,N
1504338135.3,286046999.8,N
1504338155.1,286047001.7,N
1504338175.9,286047001.9,N
1504338195.7,286047002.0,N
1504338215.5,286047001.0,N
1504338235.4,286047002.6,N
1504338255.2,286046999.9,N
1504338275.0,286046996.5,N
1504338275.9,286046996.5,N
1504338295.8,286046998.6,N
1504338315.6,286047000.6,N
1504338335.4,286047002.5,N
1504338355.3,286046998.7,N
1504338375.1,286047000.8,N
1504338376.0,286047000.8,N
1504338395.8,286046999.3,N
1504338415.7,286046995.9,N
1504338435.5,286046997.2,N
1504338455.3,286046998.5,N
1504338475.1,286046997.9,N
1504338495.9,286046995.0,N
1504338515.7,286046999.4,N
1504338535.5,286047001.1,N
1504338555.4,286046998.6,N
1504338575.2,286046999.9,N
1504338595.0,286047002.0,N
1504338595.9,286047002.0,N
1504338615.8,286046999.9,N
1504338635.6,286047003.7,N
1504338655.4,286047003.5,N
1504338675.3,286047005.1,N
1504338695.1,286047006.9,N
1504338715.8,286047008.4,P
1504338735.7,286047005.1,N
1504338755.5,286047003.8,N
1504338775.3,286047002.5,N
1504338795.2,286047001.1,N
1504338815.9,286046998.2,N
1504338835.7,286046994.9,N
1504338855.6,286046996.9,N
1504338875.4,286046999.2,N
1504338895.2,286046999.4,N
1504338915.1,286047000.9,N
1504338916.0,286047000.9,N
1504338935.8,286047001.1,N
1504338955.6,286046997.4,N
1504338975.5,286046995.7,N
1504338995.3,286046994.5,N
1504339015.1,286046996.3,N
1504339035.9,286046992.8,N
1504339055.7,286046991.9,N
1504339075.5,286046997.8,N
1504339095.3,286046996.1,N
1504339115.2,286046991.9,N
1504339135.0,286046994.6,N
1504339135.9,286046994.6,N
1504339155.7,286046990.5,N
1504339175.6,286046992.0,N
1504339195.4,286046992.8,N
